Orbital Elements at Epoch 2459200.5 (2020-Dec-17.0) TDB
Reference: JPL 18 (heliocentric ecliptic J2000)
Element | Value | Uncertainty (1-sigma) | Units |
e | .3100309118817343 | 6.4845e-08 | |
a | 2.55825958132947 | 1.7428e-08 | au |
q | 1.765120030499711 | 1.7278e-07 | au |
i | 13.76598452442778 | 6.0838e-06 | deg |
node | 85.65270315355582 | 3.1707e-05 | deg |
peri | 306.8348538757512 | 3.53e-05 | deg |
M | 157.6574344303673 | 1.9335e-05 | deg |
tp | 2458545.973408887317 (2019-Mar-03.47340889) | 7.462e-05 | TDB |
period | 1494.566835061855 4.09 | 1.5273e-05 4.182e-08 | d yr |
n | .2408724665599186 | 2.4614e-09 | deg/d |
Q | 3.35139913215923 | 2.2831e-08 | au |
|
| | Orbit Determination Parameters
Additional Information
|